Voltar ao catálogo

SL-12 R/B(2)

AtivoMEO
NORAD 32278·ROCKET BODY·🇷🇺 Russia

Lançado Oct 26, 2007 de Baikonur Cosmodrome

Loading…

Próximas Passagens (próximas 24 horas)

TLE

EnvelhecendoSource: Space-Track

Época: Aug 31, 2026, 03:21 UTC

1 32278U 07052D   26243.14027367 -.00000025  00000-0  00000+0 0  9990
2 32278  65.5198 312.7606 0019195 196.4811 231.4378  2.13393667146748

Acompanhe SL-12 R/B(2) em tempo real com AllMySat

Download on the App Store